{"data":{"norad_id":67933,"epoch":"2026-09-18T11:54:50.278464Z","epoch_age_seconds":236282,"freshness":"STALE","line1":"1 67933U 26037B   26261.49641526  .00019761  00000+0  72548-3 0  9992","line2":"2 67933  43.0029 182.2507 0000528  47.9502 312.1395 15.27590508 32826","mean_motion":15.27590508,"eccentricity":5.28e-5,"inclination_deg":43.0029,"raan_deg":182.2507,"arg_perigee_deg":47.9502,"mean_anomaly_deg":312.1395,"bstar":0.00072548,"rev_number":3282,"period_min":94.266100270898,"perigee_km":482.65536252324,"apogee_km":483.37990045233,"semimajor_km":6861.1546314878,"source":"CELESTRAK","updated_at":"2026-09-20T09:00:43.706765Z"}}